Flag for Tonga Weather past 2 weeks in Nukualofa, Tonga

Now
77 °F

Passing clouds.


Feels Like: 79 °F
Forecast: 67 / 76 °F
Wind: 6 mph from South

Location: Fua'Amotu

Current Time: Sep 4, 2015 at 3:07:49 PM

Latest Report: Sep 4, 2015 at 2:00 PM


Visibility: N/A

Pressure: 30.04 "Hg

Humidity: 74%

Dew point: 68 °F

Location of NukualofaLocation

Historic Weather in Nukualofa — Graph

°F

Nukualofa temperature yesterday

Maximum temperature yesterday: 79 °F (at 11:00 AM)
Minimum temperature yesterday: 61 °F (at 7:00 AM)
Average temperature yesterday: 69 °F

Past Weeks' High & Low Weather Summary

 TemperatureHumidityPressure
High79 °F (Sep 3, 11:00 AM)100% (Aug 24, 8:00 AM)30.18 "Hg (Aug 24, 8:00 AM)
Low59 °F (Sep 4, 7:00 AM)53% (Aug 29, 11:00 AM)29.92 "Hg (Aug 25, 2:00 AM)
Average69 °F75%30.07 "Hg
* Reported Aug 20 2:00 PM — Sep 4 2:00 PM, Nukualofa, Weather by CustomWeather, © 2015

Note: Actual official high and low records may vary slightly from our data, if they occured in-between our weather recording intervals... More about our weather records

Advertising

Nukualofa weather history for previous 24 hours

 ConditionsComfort  
Time TempWeatherWind HumidityBarometerVisibility
2:00 PM
Fri, Sep 4
77 °FPassing clouds.6 mph74%30.04 "HgN/A
12:00 PM77 °FPassing clouds.5 mph74%30.07 "HgN/A
11:00 AM73 °FPassing clouds.No wind78%30.09 "HgN/A
10:00 AM73 °FPassing clouds.No wind83%30.09 "HgN/A
9:00 AM70 °FScattered clouds.No wind94%30.09 "HgN/A
8:00 AM63 °FPassing clouds.No wind94%30.09 "HgN/A
7:00 AM59 °FFog.No wind94%30.07 "Hg1 mi
6:00 AM61 °FSunny.No wind94%30.07 "HgN/A
5:00 AM61 °FPassing clouds.No wind100%30.07 "HgN/A
4:00 AM63 °FPassing clouds.No wind100%30.07 "HgN/A
3:00 AM63 °FClear.No wind100%30.09 "HgN/A
2:00 AM63 °FPassing clouds.No wind100%30.09 "HgN/A
1:00 AM64 °FPassing clouds.No wind94%30.12 "HgN/A
12:00 AM64 °FPassing clouds.No wind94%30.12 "HgN/A
11:00 PM
Thu, Sep 3
64 °FPassing clouds.No wind100%30.12 "HgN/A
10:00 PM64 °FPassing clouds.No wind100%30.12 "HgN/A
9:00 PM66 °FPassing clouds.No wind94%30.09 "HgN/A
8:00 PM66 °FPassing clouds.No wind94%30.09 "HgN/A
7:00 PM70 °FPassing clouds.No wind88%30.07 "HgN/A
6:00 PM73 °FPassing clouds.No wind83%30.04 "HgN/A
5:00 PM73 °FScattered clouds.No wind78%30.04 "HgN/A
4:00 PM75 °FScattered clouds.No wind69%30.04 "HgN/A
3:00 PM75 °FScattered clouds.No wind74%30.04 "HgN/A
Weather by CustomWeather, © 2015

See weather overviewHow to use our weather pages